Regional Weather Roundup
Issued by NWS Wakefield, VA

Home | Current Version | Previous Version | Graphics & Text | Print | Product List | Glossary On
Versions: 1 2 3 4 5 6 7 8 9 10 11 12 13 14 15 16 17 18 19 20 21 22 23 24 25 26 27 28 29 30 31 32 33 34 35 36 37 38 39 40 41 42 43 44 45 46 47 48 49 50
967
ASUS41 KAKQ 130415
RWRAKQ

REGIONAL WEATHER ROUNDUP
NATIONAL WEATHER SERVICE WAKEFIELD VA
1100 PM EST TUE DEC 12 2017

Note: "fair" indicates few or no clouds below 12,000 feet with no
significant weather and/or obstructions to visibility. * = Denotes
station may not report precipitation (e.g., rain,snow,etc.),
thunder or fog.

VAZ042-051-052>054-056-130500-
NORTHERN VIRGINIA

CITY           SKY/WX    TMP DP  RH WIND       PRES   REMARKS
WASH NATIONAL  PTCLDY    26   1  34 NW20G30   29.74R WCI  12
DULLES         PTCLDY    23   1  38 NW23      29.73S WCI   7
FORT BELVOIR   CLEAR     25   0  32 NW20G28   29.74R WCI  11
QUANTICO       MOCLDY    27   5  39 NW17G23   29.77R WCI  14
FREDERICKSBRG* PTCLDY    27  10  47 NW22G32   29.75S WCI  13
STAFFORD*      PTCLDY    25   6  42 W17G25    29.79R WCI  12
WARRENTON      CLOUDY    27   0  31 W22G30    29.75R WCI  12
CULPEPER*      PTCLDY    26   2  35 NW9G25    29.77S
MANASSAS*      CLOUDY    24   6  46 NW22G28   29.76R WCI   9
LEESBURG*      MOCLDY    27   5  39 NW28G35   29.74S WCI  11
WINCHESTER     CLOUDY    21   5  49 NW26G38   29.73S WCI   4
FRONT ROYAL*   CLOUDY    23   3  42 MISG      29.73S
LURAY*         CLOUDY    25   5  42 NW7G22    29.73F
$$

VAZ048-049-060>072-079>083-130500-
CENTRAL AND SOUTH CENTRAL VIRGINIA

CITY           SKY/WX    TMP DP  RH WIND       PRES   REMARKS
RICHMOND       PTCLDY    29   5  36 NW22G32   29.75R WCI  15
CHESTERFIELD*  NOT AVBL
PETERSBURG*    CLEAR     28   1  31 NW20G30   29.77R WCI  15
HANOVER        MOCLDY    28   5  37 W16G25    29.76R WCI  16
TAPPAHANNOCK*  NOT AVBL
QUINTON*       FAIR      29   8  41 NW17      29.73R WCI  17
CHARLOTTSVILLE CLOUDY    27   3  35 NW9       29.75S
GORDONSVILLE*  MOCLDY    26   4  39 W6        29.76R
ORANGE*        MOCLDY    27   5  39 W6G16     29.76R
LOUISA*        PTCLDY    25   3  38 NW17G28   29.80R WCI  11
BUMPASS*       FAIR      26   0  31 NW10G24   29.75R WCI  17
FARMVILLE*     CLEAR     29   6  37 CALM      29.78R
CREWE*         FAIR      28   5  37 NW12G23   29.76R WCI  18
FORT PICKETT*  NOT AVBL
CHASE CITY*    FAIR      29   5  37 NW9G16    29.79R
CLARKSVILLE*   FAIR      30   7  37 NW12G24   29.80R WCI  21
SOUTH HILL*    CLEAR     29   4  35 NW8G17    29.84R
LAWRENCEVILLE* FAIR      29   3  33 NW12G23   29.77R WCI  20
EMPORIA*       CLEAR     32   9  37 W9G22     29.78R
$$

VAZ088>098-130500-
SOUTHEAST VIRGINIA

CITY           SKY/WX    TMP DP  RH WIND       PRES   REMARKS
NORFOLK        PTCLDY    35  19  52 NW13G23   29.69R
VIRGINIA BEACH CLOUDY    34  21  59 NW17G26   29.67R WCI  23
NORFOLK NAVAL  MOCLDY    34  18  52 NW23G33   29.71R WCI  22
WEST POINT*    CLOUDY   N/A N/A N/A NW16G24   29.74R
SALUDA*        CLOUDY    31  18  57 NW18G31   29.70R WCI  19
NEWPORT NEWS   PTCLDY    32  16  51 NW18G26   29.71R WCI  20
LANGLEY AFB    NOT AVBL
FORT EUSTIS    PTCLDY    32  13  45 NW28G37   29.68R WCI  18
WILLIAMSBURG*  PTCLDY    30  16  55 NW15G26   29.73R WCI  19
HR EXEC AP*    FAIR      33  13  43 NW12G22   29.72R WCI  24
FRANKLIN*      CLEAR     32   7  35 W16       29.74R WCI  21
US460-WAKEFLD  CLOUDY    32   8  36 NW10G22   29.74R WCI  24
$$

VAZ020-022-025-037-045-130500-
WEST CENTRAL AND SOUTHWEST VIRGINIA

CITY           SKY/WX    TMP DP  RH WIND       PRES   REMARKS
STAUNTON*      CLOUDY    22   2  42 NW12G22   29.76S WCI  11
WAYNESBORO*    CLOUDY    21   1  40 NW12G20   29.71F WCI   9
HOT SPRINGS VA CLOUDY    12   0  59 W31G46    29.55F WCI -10
LYNCHBURG      CLOUDY    26   4  38 NW8G17    29.77S
DANVILLE       PTCLDY    28  10  46 NW20G28   29.83R WCI  15
SOUTH BOSTON*  MOCLDY    29   9  42 NW3       29.81S
MARTINSVILLE   MOCLDY    27   8  43 NW21G32   29.84F WCI  13
ROANOKE        PTCLDY    25   3  38 NW28G38   29.80F WCI   9
BLACKSBURG     LGT SNOW  20  14  79 NW14G23   29.79S WCI   6
DUBLIN*        CLOUDY    22   8  53 NW26G35   29.78S WCI   5
MARION*        CLOUDY    22   5  47 W20G40    29.80R WCI   7
HILLSVILLE*    CLOUDY    19  11  70 NW20G29   29.71R WCI   3
RICHLANDS*     CLOUDY    19   8  60 NW13G23   29.84R WCI   7
WISE*          PTCLDY    21   9  58 W15G22    29.88S WCI   8
ABINGDON*      CLOUDY    26   6  42 NW15G22   29.89R WCI  13
$$

MDZ021>025-VAZ099-100-130500-
SOUTHERN MARYLAND AND THE DELMARVA PENINSULA

CITY           SKY/WX    TMP DP  RH WIND       PRES   REMARKS
PATUXENT RIVER PTCLDY    28   7  41 NW28G41   29.70R WCI  13
BAY BRIDGE APT CLOUDY    28  10  47 MISG      29.69R
LEONARDTOWN    CLEAR     28   5  37 W25G32    29.71R WCI  14
DOVER          PTCLDY    27   9  45 W23G30    29.61R WCI  13
GEORGETOWN     PTCLDY    30   8  39 NW13G26   29.63R WCI  20
EASTON         MOCLDY    29   7  38 N23G33    29.70R WCI  15
CAMBRIDGE      CLOUDY    28   9  43 NW23G38   29.67R WCI  14
SALISBURY      PTCLDY    29  12  49 NW22G32   29.64R WCI  15
OCEAN CITY     CLOUDY    30  12  47 NW22G36   29.61R WCI  17
WALLOPS ISLAND PTCLDY    30  15  53 NW22G36   29.64R WCI  17
ACCOMACK*      CLOUDY    33  20  59 NW22G36   29.66R WCI  20
$$

NCZ012>017-030>032-130500-
NORTH CENTRAL AND EASTERN NORTH CAROLINA

CITY           SKY/WX    TMP DP  RH WIND       PRES   REMARKS
ROANOKE RAPIDS FAIR      32  10  40 NW9G23    29.78R
RALEIGH        PTCLDY    32  11  41 NW13G22   29.82R WCI  22
ELIZABETH CITY CLOUDY    37  30  75 NW21      29.69R
AHOSKIE*       PTCLDY    34  10  38 NW5       29.75R
EDENTON*       MOCLDY    40  19  42 NW25      29.71R
CURRITUCK*     CLOUDY    36  27  69 NW15G26   29.69R
KILL DEVIL HLS CLOUDY    36  33  87 CALM      29.65R
MANTEO         CLOUDY    38  30  72 NW13G20   29.68R
CAPE HATTERAS  CLOUDY    41  33  73 NW21G38   29.68R
TARBORO*       NOT AVBL
GOLDSBORO      CLEAR     36  14  40 NW9G17    29.78R
WASHINGTON     PTCLDY    36  21  53 NW12G20   29.75R
GREENVILLE     CLEAR     36  16  44 NW10G22   29.80R
NEW BERN       MOCLDY    38  26  62 NW14G23   29.77R
WILMINGTON     PTCLDY    42  17  36 NW25G36   29.80R
$$

VAZ048-130500-
ELSEWHERE

CITY           SKY/WX    TMP DP  RH WIND       PRES   REMARKS
HARRISBURG PA  PTCLDY    21   1  41 NW30G37   29.66F WCI   3
BALTIMORE      PTCLDY    24   7  48 NW20G35   29.69R WCI  10
ANNAPOLIS      CLOUDY    27  18  69 NW21G31   29.70R WCI  13
ANDREWS AFB    CLEAR     24   1  36 NW18G33   29.70R WCI  11
PHILADELPHIA   CLEAR     26   2  35 NW25G37   29.60R WCI  11
HENDERSON NC   PTCLDY    28  11  49 NW8G26    29.79S
GREENSBORO     PTCLDY    29  13  51 NW13      29.82R WCI  19
ROCKY MOUNT    CLEAR     33  14  45 NW15G28   29.79R WCI  23
$$

VAZ100-130500-
MARINE

STATION/POSITION TIME  TEMP    WIND        PRES    WAVE   SWELL
                       AIR SEA DIR/SP/G            HT/PER HT/PER
                 (UTC) (F)     (DEG/KT/KT) (MB)    (FT/S) (FT/S)
BRANDYWINE LGT   0348          340/ 27/ 34   N/A
CAPE MAY NJ      0348   31 44  330/ 19/ 34 1001.4R
LEWES DE         0348          320/ 31/ 37   N/A
15NM E FENWICK I 0350   36 53  290/ 29/ 37 1000.4R   7/ 6
OCEAN-CITY-INLET 0348          330/ 19/ 26   N/A
WACHAPREAGUE VA  0348   33 43  300/  7/ 20 1004.0R
THOMAS POINT MD  0400   27 47  300/ 28/ 33   N/A
GOOSES REEF MD   0400   29 47  340/ 29/ 39 1005.8    4/ 4
COVE POINT MD    0348   28     330/ 27/ 33 1005.9R
SOLOMONS ISLAND  0348          310/ 18/ 28   N/A
BISHOPS HEAD MD  0348   29 41  320/ 26/ 34 1005.7R
PINEY POINT MD   0348          350/ 32/ 35   N/A
POTOMAC MD       0400   32 49  340/ 29/ 37 1004.8    4/ 4
CAMBRIDGE MD     0348   28 45              1005.4R
LEWISETTA VA     0348   31 44  330/ 22/ 26 1006.2R
RAPPAHANNOCK LGT 0348          320/ 34/ 38 1004.8R
STINGRAY PT      0400   33 48  350/ 23/ 29 1005.5    3/ 3
YORK RVR RNG VA  0348   34     320/ 22/ 31 1005.8R
YORKTOWN VA      0348   34 49  290/ 20/ 25 1005.3R
JAMESTOWN VA     0400      47  320/ 21/ 25   N/A     2/ 2
DOMINION TERM VA 0348   36     310/ 30/ 35 1005.0R
KIPTOPEKE VA     0348      47  320/ 24/ 34   N/A
CAPE HENRY VA    0348   36     290/ 21/ 30   N/A
WILLOUBY STN VA  0348          300/ 25/ 31   N/A
S CRANEY ISL VA  0348   34     300/ 16/ 28 1005.2R
CAPE HENRY BUOY  0400      54                N/A     7/ 5
1ST LANDING BUOY 0400   36 50  320/ 25/ 31 1004.5    4/ 3
CAPE CHARLES BUO 0351      54                N/A     5/ 4
64NM E OF VA BCH 0350   42 60  310/ 31/ 39 1001.6R   7/ 6
DUCK PIER NC     0348   38 56  320/ 25/ 34 1003.8R
44100 DUCK FRF   0345      55                N/A     7/ 6
44056 DUCK FRF   0400      56                N/A     6/ 6
OREGON INLET NC  0348          290/ 20/ 31   N/A
HATTERAS NC      0348   40 56  310/ 36/ 40 1004.7R
DIAMOND SHLS NC  0350   47     310/ 35/ 47 1004.4R   8/ 8   5/ 8
CAPE LOOKOUT NC  0400          330/ 24/ 27 1007.0R
$$




USA.gov is the U.S. government's official web portal to all federal, state and local government web resources and services.